Regional Weather Roundup
Issued by NWS Pendleton, OR

Home | Current Version | Previous Version | Text Only | Print | Product List | Glossary On
Versions: 1 2 3 4 5 6 7 8 9 10 11 12 13 14 15 16 17 18 19 20 21 22 23 24 25 26 27 28 29 30 31 32 33 34 35 36 37 38 39 40 41 42 43 44 45 46 47 48 49 50
438
ASUS46 KPDT 241725
RWRPDT
PENDLETON REGIONAL WEATHER ROUNDUP
NATIONAL WEATHER SERVICE PENDLETON OREGON
1000 AM PDT TUE MAY 24 2016

NOTE: FAIR INDICATES FEW OR NO CLOUDS BELOW 12,000 FEET WITH NO
SIGNIFICANT WEATHER AND/OR OBSTRUCTIONS TO VISIBILITY.

# INDICATES UNOFFICIAL STATION AND DATA

WAZ520-241810-
EAST SLOPES OF WASHINGTON CASCADES

CITY            SKY/WX      TMP DP  RH  WIND    PRES   REMARKS
#CLE ELUM HS    N/A         58  44  60  NW6     29.87S
#CLE ELUM 2NW   N/A         57  42  57  SW9     N/A
#GLENWOOD       N/A         60  46  60  SE1     29.89F
#MANASTASH CYN  N/A         58  39  49  N1      29.86S
#NELSON 3SW     N/A         56  44  64  CALM    30.07S
#NILE           N/A         59  44  57  W5      29.16S
#TEANAWAY 4NE   N/A         60  50  69  S3      N/A
#TROUT LAKE 1NE N/A         59  45  60  W7      29.88S
#TROUT LAKE 1E  N/A         60  46  60  CALM    29.87S
$$

WAZ521-241810-
SIMCOE HIGHLANDS

CITY            SKY/WX      TMP DP  RH  WIND    PRES   REMARKS
#CENTERVILLE 1SWN/A         60  46  60  NW5     29.85R
#GOLDENDALE 1NE N/A         60  34  37  S2      N/A
#GOLDENDALE 4W  N/A         64  49  58  CALM    29.93S
#GOODNOE HILLS  N/A         63  49  60  SW10    29.81S
#LYLE 6NE       N/A         57  49  75  SW9     29.86S
$$

WAZ026-241810-
KITTITAS VALLEY

CITY            SKY/WX      TMP DP  RH  WIND    PRES   REMARKS
ELLENSBURG AP   CLOUDY      65  44  46  NW10    29.88S
#ELLENSBURG CWU N/A         63  44  50  N12     29.80S
#ELLENSBURG 3NE N/A         60  46  60  NW7     29.89S
#ELLENSBURG     N/A         65  44  46  N5      N/A
#ELLENSBURG 13S N/A         65  41  41  CALM    N/A
#KITTITAS 4N    N/A         62  45  54  W1      29.93R
#KITTITAS 3S    N/A         62  47  58  NW1     29.85S
#THORP 6N       N/A         56  44  64  W12     29.89F
$$

WAZ027-241810-
YAKIMA VALLEY

CITY            SKY/WX      TMP DP  RH  WIND    PRES   REMARKS
SUNNYSIDE AP    SUNNY       64  43  46  CALM    29.88F
YAKIMA AIRPORT  SUNNY       69  40  35  E3      29.88F
YAKIMA-VAGABOND SUNNY       63  41  44  N3      29.87S
#DONALD 2NE     N/A         71   6   8  SW1     28.72F
#GRANDVIEW      N/A         64  41  43  CALM    29.88F
#MABTON         N/A         64  45  50  W3      29.88S
#NACHES 2SW     N/A         63  45  52  NW7     29.89S
#TERRACE HTS    N/A         69  46  44  CALM    29.83S
#TOPPENISH      N/A         63  44  50  CALM    29.78F
#WEST VALLEY    N/A         65  43  45  NW2     29.84F
#W YAKIMA       N/A         65  44  46  NE3     29.85F
#WHITE SWAN 5E  N/A         68  46  45  CALM    29.87F
#WILEY CITY 3W  N/A         67  40  37  CALM    29.85F
$$

WAZ028-241810-
LOWER COLUMBIA BASIN...WASHINGTON

CITY            SKY/WX      TMP DP  RH  WIND    PRES   REMARKS
HANFORD         MOSUNNY     65  39  38  NE5     29.88R
PASCO           SUNNY       67  43  42  N3      29.89S
PROSSER AWOS    N/A         66  43  43  W2      29.91S
RICHLAND AWOS   SUNNY       70  43  38  S5      29.88S
#BASIN CITY 5SW N/A         66  47  50  SE1     29.84S
#BENTON CITY    N/A         65  43  45  W6      29.78S
#CONNELL 5N     N/A         62  45  54  W6      29.87R
#CONNELL 5NW    N/A         60  46  60  SW2     29.84R
#ELTOPIA 6NW    N/A         62  48  60  CALM    28.86S
#KAHLOTUS       N/A         59  46  62  SW3     29.87R
#KENNEWICK 3S   N/A         66  47  50  N2      29.88R
#PATERSON       N/A         62  50  65  SW6     29.87F
#SAGEMOOR 2W    N/A         64  45  50  SE1     29.72S
#TOUCHET 2S     N/A         65  51  60  SW7     29.86S
#WEST PASCO     N/A         69  49  49  E1      29.94R
$$

WAZ029-241810-
FOOTHILLS OF THE BLUES...WASHINGTON

CITY            SKY/WX      TMP DP  RH  WIND    PRES   REMARKS
WALLA WALLA AP  PTCLDY      62  45  54  SW12    29.90S
#CLYDE 6NW      N/A         59  47  64  SW8     29.88R
#LOWDEN 2SE     N/A         66  48  52  W7      29.86S
#PLEASANT VIEW 1N/A         59  46  62  S10     29.91R
#PRESCOTT       N/A         62  49  62  SW2     29.88S
#SUDBURY        N/A         62  N/A N/A CALM    N/A
#WHITMAN COLLEGEN/A         61  47  60  S5      29.93S
#WAITSBURG 8N   N/A         58  23  26  S8      29.76S
#WALLA WALLA 5E N/A         64  50  60  SW10    N/A
#WALLA WALLA U  N/A         64  47  54  S6      29.88S
#WHITMAN MISSIONN/A         64  49  58  CALM    29.89F
$$

WAZ030-241810-
BLUE MOUNTAINS...WASHINGTON

CITY            SKY/WX      TMP DP  RH  WIND    PRES   REMARKS
#DIXIE 5SE      N/A         48  41  77  S6      29.85R
$$

ORZ009-041-WAZ024-241810-
COLUMBIA RIVER GORGE

CITY            SKY/WX      TMP DP  RH  WIND    PRES   REMARKS
HOOD RIVER AP   CLOUDY      61  48  62  CALM    29.93R
THE DALLES AP   MOCLDY      68  49  51  NW14    29.90R
#ARLINGTON AIRPON/A         62  48  60  W7      29.89S
#CELILO DOT     N/A         69  47  45  SW8     N/A
#LYLE           N/A         62  50  65  W16G24  29.91S
#MARYHILL 2W    N/A         64  49  58  CALM    N/A
#MOSIER 1S      N/A         61  38  42  W6      29.91S
#MURDOCK        N/A         65  50  58  NW12    29.86S
#RUFUS DOT      N/A         63  48  58  NE5     N/A
#SMITHIVILLE    N/A         64  50  60  NW14    29.86F

$$

ORZ510-241810-
NORTH CENTRAL OREGON

CITY            SKY/WX      TMP DP  RH  WIND    PRES   REMARKS
#ANTELOPE       N/A         55  44  66  SW6     29.77F
#CHENOWITH 1W   N/A         58  46  64  W25     N/A
#COW CYN RST AREN/A         54  41  61  SW8     N/A
#DUFUR 9E       N/A         55  45  69  W12     29.94R
#GRASS VALLEY   N/A         56  44  64  CALM    N/A
#GRASS VALLEY 1SN/A         56  44  64  W3      29.88R
#KENT DOT       N/A         57  34  42  N13     N/A
#MAUPIN SCHOOL  N/A         63  50  62  CALM    29.94F
#MORO SCHOOL    N/A         59  50  72  NW10    29.92S
#SHANIKO 5WSW   N/A         52  36  54  SW8     N/A
#SHANIKO 4NW    N/A         53  -53  1  W6      29.93R
#TYGH VALLEY 2NEN/A         59  46  62  CALM    29.89S
#WAPANITIA AIRPON/A         60  45  58  W5      29.90S
#WASCO DOT      N/A         64  43  46  SW8     N/A
#WASCO AIRPORT  N/A         62  45  54  W10     N/A
#WASCO 5NE      N/A         60  47  62  CALM    29.88S
$$

ORZ511-241810-
CENTRAL OREGON

CITY            SKY/WX      TMP DP  RH  WIND    PRES   REMARKS
BEND AIRPORT    MOCLDY      55  41  59  N7      29.93F
MADRAS AIRPORT  CLOUDY      61  45  56  CALM    29.95F
PRINEVILLE AP   MOCLDY      55  43  64  CALM    29.94S
REDMOND AIRPORT PTCLDY      56  39  53  N5      29.94S
#ASHWOOD SCHOOL N/A         56  42  59  CALM    29.90S
#BEND 1SW       N/A         55  41  59  NW1     N/A
#BEND-AWBREY    N/A         54  43  66  N1      29.90F
#BEND-KIM LN    N/A         55  43  64  CALM    29.92S
#CULVER         N/A         57  42  57  CALM    29.87S
#CULVER 8W      N/A         56  38  51  W2      29.95R
#LAKE BILLY CHINN/A         56  N/A N/A N3      30.00F
#MADRAS 4S      N/A         57  15  19  CALM    30.01R
#POWELL BUTTE 3EN/A         53  43  69  NW3     N/A
#POWELL BUTTE   N/A         58  45  62  N1      29.82S
#PRINEVILLE 3N  N/A         56  44  64  N3      29.88F
#WARM SPRINGS   N/A         62  45  54  CALM    29.91S

$$


ORZ509-241810-
EAST SLOPES OF OREGON CASCADES

CITY            SKY/WX      TMP DP  RH  WIND    PRES   REMARKS
SISTERS AWOS    N/A         55  39  55  VRB6    29.92F
#BLUE BOX PASS  N/A         44  N/A N/A SW8     N/A
#CAMP SHERMAN   N/A         60  39  46  CALM    29.95F
#LA PINE DOT    N/A         53  35  50  CALM    N/A
#LA PINE 4NW    N/A         51  40  66  CALM    29.97F
#LAVA BUTTE DOT N/A         51  35  54  SE2     N/A
#SISTERS AIRPOR N/A         32  32  100 CALM    30.17S
#SISTERS ODOT   N/A         57  N/A N/A E2      N/A
#SISTERS 1NW    N/A         55  37  51  NE8     N/A
#SISTERS 3N     N/A         58  42  55  CALM    29.94S
#SUNRIVER       N/A         50  44  80  S2      29.93F
#TUMALO 3W      N/A         54  40  59  N2      29.78F
#WANOGA BUTTE D N/A         43  36  76  SE2     N/A

$$

ORZ044-241810-
LOWER COLUMBIA BASIN...OREGON

CITY            SKY/WX      TMP DP  RH  WIND    PRES   REMARKS
HERMISTON       PTCLDY      67  45  45  W8      29.89F
#BOARDMAN SCHOOLN/A         64  50  60  NW1     29.89S
#ECHO 8SW       N/A         64  46  52  CALM    29.90S
#I-84 EX 198 DOTN/A         62  45  54  E8      N/A
#UMATILLA SCHOOLN/A         65  55  70  NW7     29.92R
#UMATILLA       N/A         65  47  52  CALM    29.82F
$$

ORZ507-241810-
NORTHERN FOOTHILLS OF THE BLUES

CITY            SKY/WX      TMP DP  RH  WIND    PRES   REMARKS
PENDLETON AIRPT PTCLDY      62  42  48  W10     29.90S
#ADAMS 3WNW     N/A         60  45  58  SW5     29.88F
#ATHENA         N/A         59  46  62  CALM    29.91S
#CAYUSE         N/A         60  46  60  W7      29.88S
#HELIX SCHOOL   N/A         59  46  62  SW6     29.88S
#HELIX 3N       N/A         58  48  69  N9      29.88S
#HOLDMAN 5SE    N/A         60  49  67  SW2     29.90S
#HOLDMAN 6E     N/A         60  46  60  N7      29.70S
#M-F GROVE ELEM N/A         62  42  48  SW7     29.89S
#M-FREEWATER 5SEN/A         61  47  60  SW8     29.91S
#PENDLETON DNTN N/A         64  44  48  NW3     29.92S
#PDT AQUATIC CTRN/A         62  45  54  W6      29.93S
#PDT SUNRIDGE   N/A         63  45  52  W6      29.91F
#PENDLETON 7NW  N/A         65  48  54  W5      32.29S
#PILOT ROCK 1S  N/A         63  43  48  W5      29.91S
#PILOT ROCK     N/A         66  46  48  W2      29.92F
#TUTUILLA       N/A         62  47  58  CALM    29.90F
#UMAPINE 2E     N/A         65  50  58  SW6     29.87F
#WESTON SCHOOL  N/A         58  42  55  N6      29.82F

$$

ORZ508-241810-
SOUTHERN FOOTHILLS OF THE BLUES

CITY            SKY/WX      TMP DP  RH  WIND    PRES   REMARKS
LEXINGTON       PTCLDY      64  43  46  VRB6    29.93F
#AJAX           N/A         58  39  49  S2      27.67S
#CONDON SCHOOL  N/A         54  43  66  W6      29.89R
#CONDON 5W      N/A         52  39  61  W10     29.90R
#FOSSIL SCHOOL  N/A         56  41  57  W2      29.88S
#HEPPNER EOC    N/A         59  43  55  W7      29.82S
#HEPPNER 4NE    N/A         57  44  62  NW7     29.88S
#LEXINGTON 2SE  N/A         63  45  52  NW9     29.87F
#RUGGS 5NE      N/A         58  39  49  W7      30.07S
#RUGGS 2SW      N/A         57  43  59  W8      29.90F

$$

ORZ502-503-241810-
BLUE MOUNTAINS

CITY            SKY/WX      TMP DP  RH  WIND    PRES   REMARKS
MEACHAM         PTCLDY      51  38  61  VRB5    29.93R
#BATTLE MTN DOT N/A         51  43  74  S5      N/A
#CUTSFORTH PARK N/A         48  39  71  E1      29.70S
#GREENHORN 9SW  N/A         56  43  62  NW2     26.13F
#HARDMAN 10S    N/A         48  39  71  CALM    30.01S
#HEPPNER 15SE   N/A         50  41  71  CALM    29.83S
#LADD CYN SMT   N/A         56  34  43  N8      N/A
#LADD CREEK ODOTN/A         53  40  61  NE8     N/A
#LONG CREEK HS  N/A         53  43  69  CALM    N/A
#N POWDER DOT   N/A         55  40  57  NE8     N/A
#PIKES PEAK     N/A         49  41  74  SW10    27.99S
#TOLLGATE       N/A         47  40  76  S3      29.81R
#TROY SCHOOL    N/A         58  45  62  CALM    29.73S
#UKIAH          N/A         57  42  57  CALM    29.80F
#WESTON 4E      N/A         53  44  71  SW2     29.85S
$$

ORZ505-241810-
JOHN DAY BASIN

CITY            SKY/WX      TMP DP  RH  WIND    PRES   REMARKS
JOHN DAY        PTCLDY      56  40  55  N5      29.93F
#DAYVILLE SCHOOLN/A         60  39  46  N1      29.89F
#MITCHELL       N/A         55  46  72  CALM    30.08F
#MITCHELL 8NW   N/A         53  40  61  CALM    30.09S
#MONUMENT HS    N/A         61  38  42  N5      29.87F
#MT. VERNON 5SE N/A         54  39  57  CALM    29.88F
#SPRAY SCHOOL   N/A         62  N/A N/A NW1     N/A
#WINLOCK        N/A         57  41  55  N1      29.91S
$$

ORZ506-241810-
OCHOCO AND JOHN DAY HIGHLANDS

CITY            SKY/WX      TMP DP  RH  WIND    PRES   REMARKS
#HORSE RIDGE DO N/A         50  37  61  NW6     N/A
#KEYES SMT DOT  N/A         49  38  66  NE3     N/A
#PAULINA SCHOOL N/A         55  39  55  CALM    N/A
#PINE MTN OBS   N/A         42  37  82  CALM    N/A
#PRAIRIE CITY   N/A         58  44  60  W1      30.06
#SENECA 9NW     N/A         49  38  66  CALM    29.90S
$$

ORZ049-241810-
GRANDE RONDE VALLEY

CITY            SKY/WX      TMP DP  RH  WIND    PRES   REMARKS
LA GRANDE       PTCLDY      59  37  44  NE3     29.90F
#COVE           N/A         57  45  64  CALM    29.95F
#COVE SCHOOL    N/A         59  41  51  CALM    29.94F
#COVE 6NW       N/A         56  42  59  CALM    29.80F
#ELGIN 3N       N/A         59  42  53  S1      29.89F
#ELGIN 1E       N/A         58  42  55  CALM    N/A
#ISLAND CITY 4N N/A         59  53  80  CALM    29.99S
#LADD CYN DOT   N/A         56  42  59  N5      N/A
#UNION 1S       N/A         58  44  60  CALM    29.80F
$$

ORZ050-241810-
WALLOWA COUNTY

CITY            SKY/WX      TMP DP  RH  WIND    PRES   REMARKS
#ENTERPRISE AP  N/A         49  29  46  CALM    29.86S
#ENTERPRISE HS  N/A         55  43  64  CALM    29.94F
#IMNAHA SCHOOL  N/A         60  46  60  N5      29.89F
#IMNAHA 10S     N/A         59  46  62  NE5     29.90S
#JOSEPH 3N      N/A         51  36  56  CALM    29.95S
#JOSEPH 3W      N/A         51  41  68  CALM    29.77R
#LOSTINE        N/A         56  42  59  CALM    29.68F
#LOSTINE 3SE    N/A         54  41  61  W1      29.92S
#MT HOWARD 8000 N/A         34  30  85  NW3     29.95R
#PROMISE 1S     N/A         51  42  71  W3      29.98F
#WALLOWA SCHOOL N/A         57  43  59  NE1     29.88F



$$



USA.gov is the U.S. government's official web portal to all federal, state and local government web resources and services.